Regional Weather Roundup
Issued by NWS Cleveland, OH

Home | Current Version | Previous Version | Graphics & Text | Print | Product List | Glossary On
Versions: 1 2 3 4 5 6 7 8 9 10 11 12 13 14 15 16 17 18 19 20 21 22 23 24 25 26 27 28 29 30 31 32 33 34 35 36 37 38 39 40 41 42 43 44 45 46 47 48 49 50
000
ASUS41 KCLE 030610
RWRCLE
OHIO REGIONAL WEATHER ROUNDUP
NATIONAL WEATHER SERVICE CLEVELAND, OH
200 AM EDT WED SEP 03 2014

NOTE: "FAIR" INDICATES FEW OR NO CLOUDS BELOW 12,000 FEET WITH NO
SIGNIFICANT WEATHER AND/OR OBSTRUCTIONS TO VISIBILITY.

OHZ001>008-015>018-024>027-034-035-043-044-030700-
   NORTHWEST OHIO

CITY           SKY/WX    TMP DP  RH WIND       PRES   REMARKS
DEFIANCE       FOG       63  61  93 CALM      29.99S VSB 1/4
FINDLAY        FAIR      66  63  90 SW5       29.99R FOG
TOLEDO EXPRESS FAIR      64  63  94 W3        29.98S
TOLEDO EXEC    FAIR      66  63  90 W5        29.98S
LIMA           FAIR      67  64  90 SW3       30.00F
$$

OHZ009>014-019>023-028>033-038-089-030700-
   NORTHEAST OHIO

CITY           SKY/WX    TMP DP  RH WIND       PRES   REMARKS
CLE-HOPKINS    FAIR      62  61  96 SW5       30.01R
CLE-LAKEFRONT  FAIR      68  63  84 S3        29.97R
CUY CO. ARPT   NOT AVBL
LORAIN-ELYRIA  FAIR      66  63  90 CALM      30.00R FOG
ASHTABULA      FOG       60  60 100 CALM      29.99S VSB 1/4
AKRON-CANTON   FAIR      66  62  87 CALM      30.01R
WOOSTER        FOG       60  58  92 S3        30.01S VSB 1/4
MANSFIELD      FAIR      65  64  97 SW3       30.01S
YOUNGSTOWN     FAIR      62  61  96 CALM      30.00S
$$

OHZ042-051>053-060>062-070>072-077>081-030700-
  SOUTHWEST OHIO

CITY           SKY/WX    TMP DP  RH WIND       PRES   REMARKS
CINC-COVINGTON FOG       68  66  93 CALM      30.02S VSB 3/4
CINC-LUNKEN    FOG       68  68 100 NE3       30.02S VSB 1/4
HAMILTON       FOG       65  64  97 CALM      30.02S VSB 1/2
DAYTON         FAIR      66  64  93 W6        30.02F
WRIGHT-PAT AFB FAIR      65  65  99 CALM      30.01S FOG
DAYTON GENERAL FAIR      66  65  96 CALM      30.02R
WILMINGTON     FOG       64  62  93 CALM      30.02S VSB 1/4
$$

OHZ036-037-039>041-045>050-054>059-063>069-073>076-082>088-030700-
  CENTRAL AND SOUTHEAST OHIO

CITY           SKY/WX    TMP DP  RH WIND       PRES   REMARKS
COLUMBUS       FAIR      70  65  84 CALM      30.00R
OSU AIRPORT    FOG       64  63  96 CALM      30.01R VSB 1/2
BOLTON FIELD   FAIR      64  64 100 CALM      30.02R FOG
RICKENBACK AFB FAIR      66  63  87 CALM      30.00S FOG
NEWARK         FAIR      62  60  93 CALM      30.01S FOG
MARION         FAIR      63  61  93 S5        30.01S FOG
LANCASTER      FAIR      63  61  93 CALM      30.01S FOG
ZANESVILLE     MOCLDY    64  62  93 CALM      30.00S FOG
NEW PHILLY     FOG       65  64  97 CALM      30.01S VSB 1/4
$$


USA.gov is the U.S. government's official web portal to all federal, state and local government web resources and services.